Location: Dunedin
(45.8670°S, 170.5000°E)
Time: 01:44:06
(UTC+12:00)

Cosmos 2219 Rocket - Visible Passes

Search period start: 26 April 2019 00:00
Search period end: 06 May 2019 00:00
Orbit: 827 x 848 km, 71.0° (Epoch: 24 April)

Date Brightness Start Highest point End Pass type
(mag) Time Alt. Az. Time Alt. Az. Time Alt. Az.
26 Apr 2.6 04:27:47 59° SE 04:27:47 59° SE 04:32:28 10° SSE visible
26 Apr 3.4 06:09:33 19° WSW 06:11:21 22° SW 06:15:46 10° S visible
27 Apr 3.3 04:12:25 41° SE 04:12:25 41° SE 04:16:05 10° SSE visible
27 Apr 3.3 05:54:09 23° WSW 05:54:55 24° SW 05:59:26 10° S visible
28 Apr 3.8 03:56:56 29° SE 03:56:56 29° SE 03:59:41 10° SSE visible
28 Apr 3.3 05:38:40 25° SW 05:38:40 25° SW 05:43:08 10° S visible
29 Apr 4.3 03:41:22 22° SE 03:41:22 22° SE 03:43:16 10° SSE visible
29 Apr 3.4 05:23:06 25° SSW 05:23:06 25° SSW 05:26:48 10° S visible
30 Apr 4.7 03:25:45 16° SE 03:25:45 16° SE 03:26:52 10° SE visible
30 Apr 3.6 05:07:29 23° SSW 05:07:29 23° SSW 05:10:29 10° S visible
01 May 5.0 03:10:03 12° SE 03:10:03 12° SE 03:10:27 10° SE visible
01 May 3.9 04:51:48 21° S 04:51:48 21° S 04:54:08 10° S visible
02 May 4.1 04:36:04 18° S 04:36:04 18° S 04:37:49 10° S visible
03 May 4.4 04:20:18 16° S 04:20:18 16° S 04:21:28 10° SSE visible
04 May 4.6 04:04:29 13° S 04:04:29 13° S 04:05:08 10° SSE visible
05 May 4.9 03:48:39 11° SSE 03:48:39 11° SSE 03:48:47 10° SSE visible
